Location: Huntsville
(41.2590°N, 111.7678°W)
Time: 07:36:51
(UTC+00:00)

Envisat - Pass Details

Date: 09 December 2021
Orbit: 764 x 766 km, 98.2° (Epoch: 18 January)

Event Time Altitude Azimuth Distance (km) Brightness Sun altitude
Rises 14:07:17 0° 352° (N) 3,241 5.9 -6.5°
Reaches altitude 10° 14:11:01 10° 324° (NW) 2,309 5.0 -5.9°
Maximum altitude 14:13:00 12° 301° (WNW) 2,144 4.7 -5.5°
Drops below altitude 10° 14:15:00 10° 277° (W) 2,303 4.9 -5.2°
Sets 14:18:43 0° 249° (WSW) 3,223 5.8 -4.6°
